Regional Weather Roundup
Issued by NWS

Home | Current Version | Previous Version | Text Only | Print | Product List | Glossary Off
Versions: 1 2 3 4 5 6 7 8 9 10 11 12 13 14 15 16 17 18 19 20 21 22 23 24 25 26 27 28 29 30 31 32 33 34 35 36 37 38 39 40 41 42 43 44 45 46 47 48 49 50

000
ASUS44 KMEG 232310
RWRTN
TENNESSEE HOURLY STATE WEATHER ROUNDUP
NATIONAL WEATHER SERVICE MEMPHIS TN
600 PM CDT WED APR 23 2014

TNZ002-004-019-021-049-052-054-088>092-240000-
WEST TENNESSEE

CITY           SKY/WX    TMP DP  RH WIND       PRES   REMARKS
MEMPHIS INTL   MOSUNNY   77  35  21 E5        29.93S
NWS MEMPHIS      N/A     76 N/A N/A MISG        N/A
JACKSON        SUNNY     75  34  22 N5        29.95S
DYERSBURG      SUNNY     72  36  26 NE7       29.98S
UNION CITY     SUNNY     68  37  32 NE9       29.97S
PARIS          SUNNY     67  35  30 E7        29.99S
LEXINGTON      SUNNY     72  32  23 NE6       29.95F
SAVANNAH       SUNNY     75  35  23 N5        29.95S
$$

TNZ008-025-027-028-033-062-065-066-240000-
NORTH MIDDLE TENNESSEE

CITY           SKY/WX    TMP DP  RH WIND       PRES   REMARKS
NASHVILLE      MOSUNNY   68  33  27 N12       29.99S
DICKSON        SUNNY     66  30  26 NE7       29.99S
PORTLAND       SUNNY     64  30  27 N8        30.00S
CLARKSVILLE    SUNNY     67  38  34 NE6       29.99S
SMYRNA         SUNNY     70  33  25 N8        29.99S
MURFREESBORO   SUNNY     69  31  24 N9        29.98S
COOKEVILLE     SUNNY     66  30  26 NE6       29.98S
LIVINGSTON     SUNNY     62  27  26 NE7       30.01S
GALLATIN       SUNNY     67  35  30 N6        30.00F
CROSSVILLE     SUNNY     65  25  22 N9        29.99S
$$

TNZ061-075-076-078-094-096-097-240000-
SOUTH MIDDLE TENNESSEE

CITY           SKY/WX    TMP DP  RH WIND       PRES   REMARKS
LEWISBURG      SUNNY     68  36  30 NE6       29.98R
FAYETTEVILLE   SUNNY     67  36  31 N5        29.97S
TULLAHOMA      SUNNY     68  30  24 VRB5      29.98S
WINCHESTER     SUNNY     68  36  30 N7        29.97S
MCMINNVILLE    SUNNY     68  34  28 N7        29.98S
COLUMBIA       SUNNY     70  48  46 E9        29.96S
SHELBYVILLE    SUNNY     68  36  30 NE5       29.99S
$$

TNZ017-018-042-046-047-240000-
NORTHEAST TENNESSEE

CITY           SKY/WX    TMP DP  RH WIND       PRES   REMARKS
TRI CITIES     SUNNY     67  21  17 N8        29.95R
ELIZABETHTON   CLEAR     64  27  24 CALM      29.95R
$$

TNZ012-013-036-069-073-074-240000-
CENTRAL EAST TENNESSEE

CITY           SKY/WX    TMP DP  RH WIND       PRES   REMARKS
KNOXVILLE      SUNNY     68  31  25 E6        29.95S
OAK RIDGE      SUNNY     71  26  18 NE5       29.97R
$$

TNZ083-085-099-240000-
SOUTHEAST TENNESSEE

CITY           SKY/WX    TMP DP  RH WIND       PRES   REMARKS
CHATTANOOGA    MOSUNNY   74  32  21 VRB7      29.93S
$$

SKY/WX REPORTED AS FAIR MEANS FEW OR NO CLOUDS BELOW
12 THOUSAND FEET.




USA.gov is the U.S. government's official web portal to all federal, state and local government web resources and services.